PROPCUBE 2 (FAUNA) (43052 NORAD) Tracking and Keplerian Element Data

This shows tracking and keplerian element data for the satellite.

Feedback or suggestion? Click here.




ElementValue
Catalog43052
NamePROPCUBE 2 (FAUNA)
Epoch Orbit7684
Epoch Day109.94499367
Epoch Year2019
RAAN343.9326
Inclination51.6396
Eccentricity0.0001727
Argument of Perigee328.7717
Mean Anonmoly31.3165
Mean Motion15.41192908
Decay Rate2.759E-05
L11 43052U 17071R 19109.94499367 .00002759 00000-0 75063-4 0 9999
L22 43052 51.6396 343.9326 0001727 328.7717 31.3165 15.41192908 76842

Live tracking and technical data element details for PROPCUBE 2 (FAUNA) (NORAD 43052). PROPCUBE 2 (FAUNA) can be tracked NOW for your location showing map with azimuth and elevation plus other details from your city location.

Track the satellite on the map from your city or location and see movement details for azimuth, elevation, latitude, longitude, range, height, and movement on the map or in text.







IsCatalogInMostPopularTable: catalog: 43052, numindb: 224
Update: records affected: 1



GetName: 43052 PROPCUBE 2 (FAUNA)

Hit Count: updated at: Sat, 20 Apr 2019 20:42:38 GMT